Regional Weather Roundup
Issued by NWS

Home | Current Version | Previous Version | Text Only | Print | Product List | Glossary Off
Versions: 1 2 3 4 5 6 7 8 9 10 11 12 13 14 15 16 17 18 19 20 21 22 23 24 25 26 27 28 29 30 31 32 33 34 35 36 37 38 39 40 41 42 43 44 45 46 47 48 49 50

000
ASUS43 KFSD 291110
RWRSD

WEATHER ROUNDUP FOR SOUTH DAKOTA
NATIONAL WEATHER SERVICE SIOUX FALLS SD
600 AM CDT SUN MAY 29 2016

NOTE: "FAIR" INDICATES FEW OR NO CLOUDS BELOW 12,000 FEET WITH NO
SIGNIFICANT WEATHER AND/OR OBSTRUCTIONS TO VISIBILITY.


SDZ001>005-009-010-012>017-291200-
NORTHWEST AND NORTH CENTRAL SOUTH DAKOTA

CITY           SKY/WX    TMP DP  RH WIND       PRES   REMARKS
BUFFALO          N/A     47  42  83 W7        29.99R
FAITH            N/A     51  46  83 W7        30.04R
MOBRIDGE       CLEAR     53  49  86 CALM      29.99R
$$

SDZ012>016-024>037-041>051-057-063-072>074-291200-
SOUTHWEST AND SOUTH CENTRAL SOUTH DAKOTA

CITY           SKY/WX    TMP DP  RH WIND       PRES   REMARKS
RAPID CTY ARPT CLEAR     46  42  86 NW7       30.06S
PIERRE         CLEAR     51  49  92 SW7       30.01R
CUSTER         PTCLDY    38  36  92 NW5       30.13S
ELLSWORTH AFB  CLEAR     46  44  95 W7        30.06S
PHILIP         CLEAR     48  47  96 W7        30.04R
PINE RIDGE     PTCLDY    37  35  92 S5        30.08R
WINNER         FAIR      56  49  77 W8        30.03R
$$

SDZ004>011-016>023-039-040-291200-
NORTHEAST SOUTH DAKOTA

CITY           SKY/WX    TMP DP  RH WIND       PRES   REMARKS
ABERDEEN       CLEAR     55  51  86 W6        29.96R
WATERTOWN      CLEAR     56  53  90 W9        29.96R
BROOKINGS      CLEAR     57  55  93 W7        29.97R
SISSETON         N/A     56  54  93 N3        29.90R
$$

SDZ017-020-022-023-036>040-048>070-291200-
SOUTHEAST SOUTH DAKOTA

CITY           SKY/WX    TMP DP  RH WIND       PRES   REMARKS
SIOUX FALLS    CLOUDY    57  55  93 SW3       29.99R
HURON          CLEAR     51  50  96 NW6       29.97R
CHAMBERLAIN    PTCLDY    55  55  99 W7        30.02R
MITCHELL       CLEAR     58  57  97 W6        29.99R
YANKTON          N/A     55  52  88 CALM      29.99S VSB 1/2
$$

ABBREVIATIONS USED IN REMARKS
   TC - TEMPERATURE IN CELSIUS
  WCI - WIND CHILL INDEX
   HX - HEAT INDEX
  VSB - VISIBILITY





USA.gov is the U.S. government's official web portal to all federal, state and local government web resources and services.